Wind_Speed
20 18 16 15 16 16 15 14 14 18 19 18 19 19 18 18 17 17 17 18 18 18 18 19 20 20 21 21 22 22 22 22 21 20 20 19 20 20 21 21 22 23 24 26
19 17 15 15 15 15 13 13 15 17 17 16 16 15 14 15 15 16 16 16 17 17 18 19 20 20 20 21 22 22 22 21 21 20 19 19 19 20 20 19 20 20 21 23
17 15 15 15 14 14 13 15 14 14 16 14 13 11 11 12 13 14 15 15 16 17 18 19 20 20 20 21 22 22 22 22 21 20 20 20 20 19 19 18 18 18 19 20
18 16 15 15 15 13 14 13 12 12 13 11 10 11 11 11 12 13 13 14 15 17 17 18 18 19 20 21 22 23 22 22 22 21 21 21 20 20 18 17 17 17 17 18
18 17 16 15 14 12 12 11 10 10 9 8 8 9 11 12 12 12 13 15 16 16 17 17 18 19 20 21 22 23 23 23 23 22 22 22 21 20 19 17 16 15 16 17
17 15 15 14 12 12 11 9 7 5 5 6 6 8 10 11 11 12 13 14 15 16 16 17 18 19 20 22 23 23 23 23 23 23 23 22 21 21 20 18 16 15 15 15
13 13 13 12 12 11 9 7 3 4 6 7 8 9 9 9 10 11 12 13 14 15 16 17 18 19 21 22 23 23 23 23 24 24 24 23 22 21 20 18 16 14 13 13
8 10 11 11 11 10 8 6 6 5 4 7 8 8 8 8 8 10 11 12 13 14 16 17 18 19 21 22 23 24 24 24 24 25 24 24 23 22 21 20 17 14 13 12
9 12 10 9 9 9 8 6 6 6 6 5 7 7 5 7 7 8 9 11 12 14 15 16 17 19 21 22 24 24 24 25 25 25 25 24 23 23 22 21 18 16 14 13
12 10 8 8 8 8 7 7 6 6 6 4 5 8 6 5 7 7 9 10 12 13 15 16 17 18 20 22 23 24 24 25 25 25 25 25 24 23 23 22 20 18 16 14
10 8 8 7 7 7 7 7 6 6 5 5 5 5 5 5 6 7 8 10 12 13 14 16 17 18 20 21 22 23 24 25 26 26 26 25 24 24 23 22 21 19 17 15
13 10 7 6 5 6 7 7 7 7 6 5 5 3 3 4 5 6 8 10 11 13 14 15 16 18 19 20 22 23 24 25 26 26 26 25 25 24 23 23 22 20 19 17
13 11 7 6 6 7 8 7 7 7 6 5 5 3 3 3 4 6 8 10 11 12 14 15 16 17 19 20 21 22 23 25 25 26 26 26 25 24 24 24 23 21 20 19
11 11 11 10 10 9 7 7 7 7 7 6 5 4 3 4 5 6 8 9 11 12 13 15 16 17 19 20 21 22 23 24 25 25 25 25 25 24 24 23 23 23 22 20
11 11 11 10 10 9 8 7 7 7 7 6 5 4 4 4 5 6 8 9 11 12 13 15 16 17 18 19 20 21 23 23 24 24 25 25 24 24 24 24 24 24 23 21
10 10 10 9 9 9 8 8 8 7 7 6 6 5 5 5 6 7 8 9 11 12 14 15 16 17 18 19 20 21 22 23 23 24 24 24 24 24 24 24 24 24 24 23
10 10 10 9 9 9 8 8 8 8 7 7 7 6 6 6 7 8 9 10 12 13 14 15 16 17 18 19 20 21 21 22 22 22 23 23 24 24 24 23 23 24 24 24
11 11 10 10 10 9 8 8 8 8 8 8 8 7 7 8 8 9 10 11 12 13 15 16 16 17 18 19 20 20 21 21 22 21 21 22 23 23 23 23 23 23 23 23
12 11 11 11 11 9 9 9 10 9 9 9 9 9 9 10 10 10 11 12 13 14 15 16 17 17 18 19 20 20 20 20 21 21 21 21 22 22 22 22 23 23 23 22
13 13 13 13 12 12 10 10 11 11 11 11 11 11 11 12 12 11 12 13 14 15 16 17 18 18 19 19 19 20 20 20 20 21 21 21 21 21 21 22 22 22 22 22
15 15 15 15 15 15 11 12 13 13 12 12 12 12 13 13 14 14 15 15 16 17 18 18 18 19 19 19 19 20 20 20 20 20 21 21 21 21 21 21 21 21 21 21
17 17 17 17 18 17 14 15 16 15 14 15 15 15 15 16 16 16 17 17 18 18 19 19 19 20 20 20 20 20 20 21 21 21 21 21 21 21 21 21 21 20 20 20
20 19 20 21 20 18 18 18 18 18 18 18 17 18 18 18 18 18 18 19 19 20 20 20 21 21 21 21 21 21 21 21 21 22 22 22 21 21 21 21 21 20 20 20
23 23 23 23 22 22 22 21 21 21 21 21 20 20 20 20 20 20 20 20 20 21 21 22 22 22 22 22 22 23 23 23 23 23 23 23 22 22 22 22 21 21 21 20
26 26 25 25 25 24 24 24 24 24 24 23 23 23 23 23 22 22 22 22 22 22 23 23 23 24 24 24 24 24 24 25 25 25 25 24 24 23 23 23 22 22 21 21
28 28 28 28 28 28 27 27 27 26 26 26 26 25 25 25 24 24 24 24 24 25 25 25 25 26 26 26 26 26 26 26 26 26 26 25 25 25 25 24 23 23 23 22
Wind_Direction
230 236 241 245 251 257 265 279 293 296 303 311 315 319 323 330 335 336 339 342 345 347 347 346 345 343 342 342 340 338 335 333 330 326 320 315 309 303 297 292 285 278 271 265
226 231 236 243 249 263 273 281 282 288 300 310 316 322 328 336 342 345 347 349 350 350 349 348 349 349 349 348 346 345 343 342 340 336 331 324 318 311 304 297 290 283 276 269
219 225 232 243 253 255 263 273 282 291 302 310 318 330 337 346 346 346 348 350 351 351 351 350 352 353 354 353 353 352 350 349 347 345 340 334 327 321 314 306 297 288 280 274
215 219 229 240 251 258 264 274 287 296 302 312 324 332 337 347 348 346 349 351 352 352 352 354 356 357 357 358 357 357 356 355 352 349 346 343 338 333 325 316 306 296 286 278
216 220 228 235 247 255 264 278 289 299 307 320 332 338 334 342 346 351 353 354 355 356 357 359 0 1 2 1 1 1 0 359 358 355 352 349 345 341 335 326 316 305 295 284
215 224 231 237 249 259 267 271 281 307 331 343 330 327 323 336 348 352 354 355 358 2 4 4 5 6 5 5 4 4 3 2 1 360 357 354 352 349 344 336 326 315 305 294
220 232 237 246 254 254 256 258 265 336 345 329 316 318 321 339 345 349 354 359 5 8 9 9 10 11 9 8 8 7 7 6 5 3 2 1 -0 357 353 347 339 331 321 307
225 248 243 247 252 254 249 241 226 198 223 276 299 313 331 342 346 351 357 3 8 10 11 13 13 12 11 10 9 9 9 8 6 5 5 5 5 4 2 359 354 349 341 327
199 240 247 248 247 248 240 231 231 218 208 242 300 312 329 335 347 352 360 5 8 10 10 11 11 10 10 10 10 10 10 9 8 7 7 6 6 7 7 5 2 358 353 345
197 229 242 244 245 238 237 234 229 218 212 208 277 299 318 341 347 354 1 5 7 8 9 9 10 9 9 10 10 10 10 10 9 9 8 9 9 9 9 9 7 3 359 355
208 227 245 240 244 241 232 225 225 225 223 210 230 274 317 342 347 354 360 2 3 4 7 8 8 8 8 9 9 10 11 10 10 10 10 10 10 11 10 11 10 10 7 2
217 219 240 252 240 243 238 233 227 228 220 224 241 265 307 335 345 352 356 358 359 1 3 5 5 6 7 8 8 9 10 11 11 11 11 12 12 13 13 14 14 13 11 8
215 213 211 242 246 239 231 230 232 230 228 228 240 255 284 318 339 348 350 352 355 358 0 1 2 2 4 5 6 8 9 10 11 12 13 13 14 14 16 16 16 14 12 9
214 214 208 219 235 231 226 228 227 226 227 228 239 257 275 306 329 339 345 349 352 354 356 358 359 360 1 2 4 6 7 8 10 11 12 13 15 16 16 16 15 15 13 11
217 216 214 219 228 230 231 228 223 221 225 232 236 254 279 304 321 331 339 344 348 351 353 355 356 358 359 360 1 3 5 6 8 10 12 13 14 15 15 15 15 15 14 13
218 219 219 223 229 230 228 225 221 220 225 234 246 263 280 297 311 321 330 336 341 345 348 351 353 354 356 358 359 0 1 3 4 7 9 10 12 13 13 14 15 15 15 14
221 222 222 221 225 227 223 220 219 222 230 240 252 265 278 291 303 312 321 328 333 337 340 343 345 348 350 352 355 357 358 359 1 3 5 7 8 10 11 12 13 14 15 15
226 226 225 226 227 231 223 221 227 232 239 247 256 266 276 287 296 305 313 321 326 330 334 337 339 342 344 347 349 351 354 356 358 359 1 3 6 7 8 10 11 11 12 14
230 230 231 233 235 235 229 227 234 240 245 253 260 268 276 284 292 301 308 315 320 324 328 331 334 337 339 341 343 345 348 351 354 356 357 359 1 3 4 6 7 8 9 10
234 235 237 238 241 243 235 235 243 249 253 258 264 270 277 284 292 300 305 310 315 319 322 325 327 330 332 334 337 339 342 344 347 350 352 354 356 358 359 1 3 5 6 8
239 241 242 242 244 247 245 247 251 255 259 262 266 272 278 284 292 297 301 305 309 312 315 318 320 323 326 328 331 333 335 337 340 342 345 347 350 352 353 355 357 359 2 4
245 244 244 245 247 250 250 253 256 261 263 265 269 273 278 284 289 293 297 301 305 308 310 313 314 317 320 322 324 326 328 330 332 334 337 339 341 344 347 349 350 351 353 356
249 250 250 250 252 255 255 256 259 262 264 267 271 274 279 283 286 290 293 297 301 304 306 308 310 313 314 316 318 319 321 322 324 326 327 329 332 334 337 340 342 344 346 347
251 251 252 254 255 256 257 258 260 262 265 268 271 275 278 281 284 287 291 294 297 300 303 305 307 309 310 312 314 315 315 316 317 318 320 321 323 325 327 329 331 334 337 340
252 253 253 255 257 258 259 260 261 264 266 268 271 274 277 280 283 286 290 292 295 297 300 302 304 305 307 308 310 311 312 312 313 314 315 315 316 317 319 321 322 324 326 329
254 256 256 257 257 258 259 260 263 265 266 269 271 273 276 279 281 285 287 290 292 295 297 299 301 302 304 305 307 308 308 309 310 310 311 312 312 313 313 314 315 316 317 319
Height
5873 5877 5878 5880 5881 5881 5881 5881 5881 5879 5878 5877 5875 5872 5869 5866 5864 5861 5858 5855 5852 5849 5845 5842 5838 5834 5831 5826 5822 5818 5814 5810 5806 5802 5799 5796 5794 5791 5789 5788 5786 5786 5786 5786
5871 5873 5876 5877 5878 5878 5878 5879 5880 5878 5876 5875 5873 5871 5868 5865 5863 5860 5858 5855 5851 5848 5845 5841 5837 5833 5829 5825 5821 5816 5812 5808 5804 5800 5796 5793 5790 5787 5785 5782 5781 5780 5779 5780
5868 5871 5873 5875 5875 5876 5877 5877 5876 5876 5874 5873 5871 5870 5867 5865 5863 5860 5858 5855 5851 5848 5845 5841 5836 5833 5829 5824 5820 5815 5810 5806 5802 5798 5794 5790 5786 5783 5780 5778 5776 5774 5774 5774
5865 5867 5870 5872 5873 5873 5874 5874 5874 5874 5872 5871 5870 5868 5866 5864 5862 5860 5857 5854 5851 5848 5844 5841 5837 5833 5828 5824 5819 5814 5810 5805 5800 5796 5792 5787 5783 5780 5776 5773 5771 5770 5769 5768
5862 5865 5868 5870 5870 5871 5872 5873 5872 5871 5870 5870 5869 5868 5867 5863 5862 5860 5857 5854 5851 5848 5844 5840 5837 5833 5828 5824 5819 5814 5809 5804 5800 5795 5790 5786 5781 5777 5773 5770 5767 5765 5764 5763
5859 5863 5865 5866 5868 5869 5870 5871 5870 5870 5869 5869 5869 5868 5867 5863 5861 5859 5857 5854 5851 5848 5844 5841 5837 5833 5829 5824 5819 5814 5809 5804 5799 5794 5789 5784 5780 5775 5771 5767 5764 5762 5760 5759
5860 5862 5864 5866 5867 5868 5868 5869 5869 5869 5870 5870 5869 5868 5867 5864 5862 5860 5857 5854 5851 5848 5845 5841 5837 5833 5829 5824 5820 5815 5810 5805 5799 5794 5789 5784 5779 5774 5769 5764 5761 5758 5756 5755
5860 5861 5863 5864 5865 5866 5866 5867 5868 5869 5870 5870 5868 5866 5866 5864 5862 5860 5857 5855 5852 5849 5845 5842 5838 5834 5830 5825 5820 5815 5810 5805 5800 5794 5789 5784 5778 5773 5768 5764 5760 5757 5754 5752
5858 5860 5861 5862 5863 5864 5865 5865 5866 5867 5867 5868 5867 5866 5865 5863 5862 5860 5857 5855 5852 5849 5846 5842 5839 5835 5831 5826 5821 5816 5811 5806 5800 5795 5789 5784 5779 5774 5768 5764 5759 5756 5753 5751
5856 5858 5860 5861 5862 5863 5864 5864 5864 5865 5865 5867 5868 5865 5863 5862 5861 5859 5857 5855 5852 5850 5846 5843 5839 5836 5831 5827 5822 5817 5812 5807 5801 5796 5790 5785 5779 5774 5769 5764 5760 5756 5753 5750
5855 5858 5859 5860 5861 5862 5862 5863 5863 5864 5864 5865 5865 5866 5863 5862 5861 5859 5857 5855 5853 5850 5847 5844 5840 5836 5832 5828 5823 5818 5813 5808 5802 5797 5791 5785 5780 5775 5770 5765 5761 5757 5754 5751
5854 5856 5857 5858 5860 5860 5861 5861 5862 5863 5863 5863 5863 5866 5862 5861 5860 5859 5857 5855 5853 5850 5847 5844 5840 5837 5833 5829 5824 5819 5814 5809 5803 5798 5792 5787 5781 5776 5772 5767 5762 5758 5755 5751
5853 5856 5857 5858 5860 5860 5859 5860 5861 5861 5862 5862 5862 5865 5861 5861 5860 5858 5857 5855 5852 5850 5847 5844 5841 5837 5833 5829 5825 5820 5815 5810 5805 5799 5794 5788 5783 5778 5773 5769 5764 5760 5756 5752
5852 5854 5856 5857 5856 5857 5858 5859 5859 5860 5860 5861 5861 5861 5861 5860 5859 5858 5856 5854 5852 5850 5847 5844 5841 5837 5833 5829 5825 5821 5816 5811 5806 5801 5795 5790 5785 5780 5775 5771 5766 5761 5757 5752
5850 5852 5853 5854 5855 5856 5857 5858 5858 5859 5859 5860 5860 5860 5860 5859 5858 5857 5856 5854 5852 5849 5847 5844 5841 5837 5834 5830 5825 5821 5817 5812 5807 5802 5797 5792 5787 5782 5777 5772 5768 5763 5758 5754
5849 5851 5852 5853 5853 5854 5855 5856 5857 5858 5858 5859 5859 5859 5858 5858 5857 5856 5854 5853 5851 5849 5846 5843 5840 5837 5833 5829 5825 5821 5817 5812 5808 5803 5799 5794 5789 5784 5779 5774 5770 5765 5760 5755
5847 5849 5850 5851 5852 5853 5854 5855 5856 5856 5857 5857 5857 5858 5857 5856 5855 5854 5853 5851 5849 5847 5845 5842 5839 5836 5833 5829 5825 5821 5817 5813 5808 5804 5799 5795 5790 5786 5781 5776 5772 5767 5762 5757
5846 5847 5848 5849 5851 5851 5854 5853 5854 5855 5855 5855 5855 5855 5855 5854 5854 5852 5851 5850 5848 5846 5843 5841 5838 5835 5831 5828 5824 5820 5816 5812 5808 5804 5800 5796 5791 5787 5782 5778 5773 5769 5764 5760
5844 5845 5846 5847 5848 5849 5851 5851 5852 5852 5853 5853 5853 5853 5852 5852 5851 5850 5849 5847 5846 5843 5841 5839 5836 5833 5830 5826 5823 5819 5816 5812 5808 5804 5800 5796 5792 5787 5783 5779 5775 5770 5766 5762
5842 5843 5845 5845 5846 5847 5849 5849 5849 5851 5851 5851 5850 5850 5850 5849 5849 5849 5846 5845 5843 5841 5839 5836 5834 5831 5828 5824 5821 5818 5814 5811 5807 5803 5799 5795 5791 5787 5784 5780 5776 5771 5767 5763
5840 5840 5841 5842 5843 5844 5846 5846 5846 5848 5849 5848 5847 5847 5846 5846 5845 5845 5843 5841 5839 5837 5835 5833 5831 5828 5825 5822 5819 5816 5812 5809 5805 5802 5798 5795 5791 5787 5783 5780 5776 5772 5768 5764
5836 5837 5838 5839 5839 5842 5842 5842 5843 5844 5844 5843 5843 5843 5842 5842 5841 5840 5839 5837 5836 5834 5832 5829 5827 5825 5822 5819 5816 5813 5810 5807 5803 5800 5797 5793 5790 5786 5783 5779 5775 5772 5768 5765
5831 5833 5833 5835 5837 5837 5837 5838 5838 5838 5839 5839 5839 5839 5838 5837 5837 5836 5834 5833 5831 5830 5827 5825 5823 5821 5818 5815 5813 5810 5807 5804 5801 5797 5794 5791 5788 5784 5781 5778 5774 5771 5768 5764
5826 5827 5828 5829 5830 5831 5832 5832 5833 5833 5833 5834 5834 5833 5833 5832 5831 5830 5829 5828 5826 5825 5823 5821 5818 5816 5814 5811 5808 5806 5803 5800 5797 5794 5791 5788 5785 5782 5779 5776 5772 5769 5766 5763
5820 5821 5822 5823 5824 5825 5826 5826 5827 5827 5828 5828 5828 5827 5827 5826 5826 5825 5824 5822 5821 5819 5817 5815 5813 5811 5809 5806 5804 5801 5798 5795 5792 5789 5786 5784 5781 5778 5775 5772 5769 5766 5763 5760
5814 5814 5815 5817 5817 5818 5819 5820 5820 5821 5821 5821 5821 5821 5820 5820 5819 5818 5817 5816 5815 5813 5811 5809 5807 5805 5803 5800 5798 5795 5792 5789 5787 5784 5781 5778 5776 5773 5770 5768 5765 5762 5760 5757